Year,Month,Day,Hour,Minute,Value (Times are PST for temperature in C)
2016,04,20,00,00,16.40
2016,04,20,00,01,16.30
2016,04,20,00,02,16.30
2016,04,20,00,03,16.30
2016,04,20,00,04,16.20
2016,04,20,00,05,16.20
2016,04,20,00,06,16.20
2016,04,20,00,07,16.10
2016,04,20,00,08,16.10
2016,04,20,00,09,16.10
2016,04,20,00,10,16.10
2016,04,20,00,11,16.10
2016,04,20,00,12,16.10
2016,04,20,00,13,16.10
2016,04,20,00,14,16.10
2016,04,20,00,15,16.10
2016,04,20,00,16,16.00
2016,04,20,00,17,15.90
2016,04,20,00,18,15.90
2016,04,20,00,19,15.90
2016,04,20,00,20,15.90
2016,04,20,00,21,15.90
2016,04,20,00,22,15.90
2016,04,20,00,23,15.90
2016,04,20,00,24,15.90
2016,04,20,00,25,15.90
2016,04,20,00,26,15.90
2016,04,20,00,27,16.00
2016,04,20,00,28,16.10
2016,04,20,00,29,16.10
2016,04,20,00,30,16.10
2016,04,20,00,31,16.10
2016,04,20,00,32,16.10
2016,04,20,00,33,16.10
2016,04,20,00,34,16.10
2016,04,20,00,35,16.10
2016,04,20,00,36,16.10
2016,04,20,00,37,16.10
2016,04,20,00,38,16.10
2016,04,20,00,39,15.90
2016,04,20,00,40,15.90
2016,04,20,00,41,15.90
2016,04,20,00,42,15.90
2016,04,20,00,43,15.80
2016,04,20,00,44,15.80
2016,04,20,00,45,15.80
2016,04,20,00,46,15.80
2016,04,20,00,47,15.70
2016,04,20,00,48,15.70
2016,04,20,00,49,15.70
2016,04,20,00,50,15.60
2016,04,20,00,51,15.60
2016,04,20,00,52,15.50
2016,04,20,00,53,15.50
2016,04,20,00,54,15.50
2016,04,20,00,55,15.50
2016,04,20,00,56,15.60
2016,04,20,00,57,15.60
2016,04,20,00,58,15.60
2016,04,20,00,59,15.70
2016,04,20,01,00,15.70
2016,04,20,01,01,15.80
2016,04,20,01,02,15.80
2016,04,20,01,03,15.80
2016,04,20,01,04,15.80
2016,04,20,01,05,15.80
2016,04,20,01,06,15.80
2016,04,20,01,07,15.80
2016,04,20,01,08,15.80
2016,04,20,01,09,15.80
2016,04,20,01,10,15.80
2016,04,20,01,11,15.80
2016,04,20,01,12,15.70
2016,04,20,01,13,15.60
2016,04,20,01,14,15.50
2016,04,20,01,15,15.50
2016,04,20,01,16,15.40
2016,04,20,01,17,15.30
2016,04,20,01,18,15.30
2016,04,20,01,19,15.20
2016,04,20,01,20,15.20
2016,04,20,01,21,15.20
2016,04,20,01,22,15.20
2016,04,20,01,23,15.20
2016,04,20,01,24,15.20
2016,04,20,01,25,15.10
2016,04,20,01,26,15.00
2016,04,20,01,27,15.00
2016,04,20,01,28,14.90
2016,04,20,01,29,14.80
2016,04,20,01,30,14.80
2016,04,20,01,31,14.70
2016,04,20,01,32,14.70
2016,04,20,01,33,14.60
2016,04,20,01,34,14.60
2016,04,20,01,35,14.50
2016,04,20,01,36,14.50
2016,04,20,01,37,14.50
2016,04,20,01,38,14.50
2016,04,20,01,39,14.50
2016,04,20,01,40,14.50
2016,04,20,01,41,14.50
2016,04,20,01,42,14.40
2016,04,20,01,43,14.40
2016,04,20,01,44,14.40
2016,04,20,01,45,14.40
2016,04,20,01,46,14.30
2016,04,20,01,47,14.30
2016,04,20,01,48,14.30
2016,04,20,01,49,14.30
2016,04,20,01,50,14.30
2016,04,20,01,51,14.30
2016,04,20,01,52,14.30
2016,04,20,01,53,14.30
2016,04,20,01,54,14.30
2016,04,20,01,55,14.30
2016,04,20,01,56,14.20
2016,04,20,01,57,14.20
2016,04,20,01,58,14.20
2016,04,20,01,59,14.20
2016,04,20,02,00,14.20
2016,04,20,02,01,14.20
2016,04,20,02,02,14.20
2016,04,20,02,03,14.20
2016,04,20,02,04,14.10
2016,04,20,02,05,14.10
2016,04,20,02,06,14.00
2016,04,20,02,07,14.00
2016,04,20,02,08,14.00
2016,04,20,02,09,14.00
2016,04,20,02,10,13.90
2016,04,20,02,11,13.90
2016,04,20,02,12,13.90
2016,04,20,02,13,13.90
2016,04,20,02,14,13.90
2016,04,20,02,15,13.80
2016,04,20,02,16,13.80
2016,04,20,02,17,13.80
2016,04,20,02,18,13.80
2016,04,20,02,19,13.80
2016,04,20,02,20,13.80
2016,04,20,02,21,13.80
2016,04,20,02,22,13.80
2016,04,20,02,23,13.80
2016,04,20,02,24,13.80
2016,04,20,02,25,13.80
2016,04,20,02,26,13.80
2016,04,20,02,27,13.80
2016,04,20,02,28,13.80
2016,04,20,02,29,13.80
2016,04,20,02,30,13.80
2016,04,20,02,31,13.70
2016,04,20,02,32,13.70
2016,04,20,02,33,13.70
2016,04,20,02,34,13.70
2016,04,20,02,35,13.70
2016,04,20,02,36,13.70
2016,04,20,02,37,13.70
2016,04,20,02,38,13.70
2016,04,20,02,39,13.70
2016,04,20,02,40,13.70
2016,04,20,02,41,13.70
2016,04,20,02,42,13.80
2016,04,20,02,43,13.80
2016,04,20,02,44,13.80
2016,04,20,02,45,13.90
2016,04,20,02,46,13.90
2016,04,20,02,47,13.90
2016,04,20,02,48,13.90
2016,04,20,02,49,13.90
2016,04,20,02,50,13.90
2016,04,20,02,51,13.80
2016,04,20,02,52,13.80
2016,04,20,02,53,13.80
2016,04,20,02,54,13.80
2016,04,20,02,55,13.80
2016,04,20,02,56,13.80
2016,04,20,02,57,13.80
2016,04,20,02,58,13.80
2016,04,20,02,59,13.70
2016,04,20,03,00,13.70
2016,04,20,03,01,13.70
2016,04,20,03,02,13.70
2016,04,20,03,03,13.70
2016,04,20,03,04,13.70
2016,04,20,03,05,13.70
2016,04,20,03,06,13.70
2016,04,20,03,07,13.70
2016,04,20,03,08,13.80
2016,04,20,03,09,13.80
2016,04,20,03,10,13.80
2016,04,20,03,11,13.80
2016,04,20,03,12,13.90
2016,04,20,03,13,13.90
2016,04,20,03,14,13.90
2016,04,20,03,15,13.90
2016,04,20,03,16,14.00
2016,04,20,03,17,14.00
2016,04,20,03,18,14.00
2016,04,20,03,19,14.10
2016,04,20,03,20,14.10
2016,04,20,03,21,14.20
2016,04,20,03,22,14.20
2016,04,20,03,23,14.20
2016,04,20,03,24,14.20
2016,04,20,03,25,14.20
2016,04,20,03,26,14.20
2016,04,20,03,27,14.20
2016,04,20,03,28,14.30
2016,04,20,03,29,14.30
2016,04,20,03,30,14.20
2016,04,20,03,31,14.20
2016,04,20,03,32,14.20
2016,04,20,03,33,14.20
2016,04,20,03,34,14.20
2016,04,20,03,35,14.20
2016,04,20,03,36,14.20
2016,04,20,03,37,14.20
2016,04,20,03,38,14.20
2016,04,20,03,39,14.20
2016,04,20,03,40,14.20
2016,04,20,03,41,14.20
2016,04,20,03,42,14.20
2016,04,20,03,43,14.20
2016,04,20,03,44,14.20
2016,04,20,03,45,14.20
2016,04,20,03,46,14.20
2016,04,20,03,47,14.20
2016,04,20,03,48,14.20
2016,04,20,03,49,14.20
2016,04,20,03,50,14.10
2016,04,20,03,51,14.10
2016,04,20,03,52,14.10
2016,04,20,03,53,14.00
2016,04,20,03,54,14.00
2016,04,20,03,55,13.90
2016,04,20,03,56,13.90
2016,04,20,03,57,13.80
2016,04,20,03,58,13.80
2016,04,20,03,59,13.80
2016,04,20,04,00,13.70
2016,04,20,04,01,13.70
2016,04,20,04,02,13.70
2016,04,20,04,03,13.70
2016,04,20,04,04,13.60
2016,04,20,04,05,13.60
2016,04,20,04,06,13.60
2016,04,20,04,07,13.60
2016,04,20,04,08,13.50
2016,04,20,04,09,13.50
2016,04,20,04,10,13.50
2016,04,20,04,11,13.40
2016,04,20,04,12,13.40
2016,04,20,04,13,13.40
2016,04,20,04,14,13.40
2016,04,20,04,15,13.30
2016,04,20,04,16,13.30
2016,04,20,04,17,13.30
2016,04,20,04,18,13.30
2016,04,20,04,19,13.30
2016,04,20,04,20,13.30
2016,04,20,04,21,13.30
2016,04,20,04,22,13.20
2016,04,20,04,23,13.20
2016,04,20,04,24,13.20
2016,04,20,04,25,13.20
2016,04,20,04,26,13.20
2016,04,20,04,27,13.20
2016,04,20,04,28,13.20
2016,04,20,04,29,13.20
2016,04,20,04,30,13.20
2016,04,20,04,31,13.20
2016,04,20,04,32,13.20
2016,04,20,04,33,13.20
2016,04,20,04,34,13.20
2016,04,20,04,35,13.20
2016,04,20,04,36,13.20
2016,04,20,04,37,13.20
2016,04,20,04,38,13.20
2016,04,20,04,39,13.20
2016,04,20,04,40,13.20
2016,04,20,04,41,13.20
2016,04,20,04,42,13.10
2016,04,20,04,43,13.10
2016,04,20,04,44,13.10
2016,04,20,04,45,13.10
2016,04,20,04,46,13.20
2016,04,20,04,47,13.20
2016,04,20,04,48,13.20
2016,04,20,04,49,13.20
2016,04,20,04,50,13.20
2016,04,20,04,51,13.20
2016,04,20,04,52,13.20
2016,04,20,04,53,13.30
2016,04,20,04,54,13.30
2016,04,20,04,55,13.30
2016,04,20,04,56,13.30
2016,04,20,04,57,13.30
2016,04,20,04,58,13.30
2016,04,20,04,59,13.30
2016,04,20,05,00,13.30
2016,04,20,05,01,13.30
2016,04,20,05,02,13.40
2016,04,20,05,03,13.40
2016,04,20,05,04,13.50
2016,04,20,05,05,13.50
2016,04,20,05,06,13.50
2016,04,20,05,07,13.60
2016,04,20,05,08,13.60
2016,04,20,05,09,13.60
2016,04,20,05,10,13.70
2016,04,20,05,11,13.70
2016,04,20,05,12,13.70
2016,04,20,05,13,13.70
2016,04,20,05,14,13.70
2016,04,20,05,15,13.70
2016,04,20,05,16,13.80
2016,04,20,05,17,13.80
2016,04,20,05,18,13.80
2016,04,20,05,19,13.90
2016,04,20,05,20,13.90
2016,04,20,05,21,13.90
2016,04,20,05,22,13.90
2016,04,20,05,23,14.00
2016,04,20,05,24,14.00
2016,04,20,05,25,14.00
2016,04,20,05,26,14.00
2016,04,20,05,27,14.10
2016,04,20,05,28,14.10
2016,04,20,05,29,14.10
2016,04,20,05,30,14.20
2016,04,20,05,31,14.20
2016,04,20,05,32,14.20
2016,04,20,05,33,14.20
2016,04,20,05,34,14.20
2016,04,20,05,35,14.20
2016,04,20,05,36,14.10
2016,04,20,05,37,14.10
2016,04,20,05,38,14.10
2016,04,20,05,39,14.00
2016,04,20,05,40,14.00
2016,04,20,05,41,14.00
2016,04,20,05,42,13.90
2016,04,20,05,43,13.90
2016,04,20,05,44,13.80
2016,04,20,05,45,13.80
2016,04,20,05,46,13.70
2016,04,20,05,47,13.70
2016,04,20,05,48,13.70
2016,04,20,05,49,13.70
2016,04,20,05,50,13.60
2016,04,20,05,51,13.60
2016,04,20,05,52,13.50
2016,04,20,05,53,13.50
2016,04,20,05,54,13.40
2016,04,20,05,55,13.30
2016,04,20,05,56,13.30
2016,04,20,05,57,13.30
2016,04,20,05,58,13.20
2016,04,20,05,59,13.20
2016,04,20,06,00,13.10
2016,04,20,06,01,13.00
2016,04,20,06,02,13.00
2016,04,20,06,03,12.90
2016,04,20,06,04,12.90
2016,04,20,06,05,12.80
2016,04,20,06,06,12.80
2016,04,20,06,07,12.80
2016,04,20,06,08,12.80
2016,04,20,06,09,12.80
2016,04,20,06,10,12.80
2016,04,20,06,11,12.80
2016,04,20,06,12,12.80
2016,04,20,06,13,12.80
2016,04,20,06,14,12.80
2016,04,20,06,15,12.80
2016,04,20,06,16,12.80
2016,04,20,06,17,12.80
2016,04,20,06,18,12.80
2016,04,20,06,19,12.80
2016,04,20,06,20,12.80
2016,04,20,06,21,12.80
2016,04,20,06,22,12.80
2016,04,20,06,23,12.90
2016,04,20,06,24,12.90
2016,04,20,06,25,13.00
2016,04,20,06,26,13.00
2016,04,20,06,27,13.10
2016,04,20,06,28,13.20
2016,04,20,06,29,13.30
2016,04,20,06,30,13.30
2016,04,20,06,31,13.30
2016,04,20,06,32,13.40
2016,04,20,06,33,13.40
2016,04,20,06,34,13.40
2016,04,20,06,35,13.40
2016,04,20,06,36,13.50
2016,04,20,06,37,13.50
2016,04,20,06,38,13.50
2016,04,20,06,39,13.50
2016,04,20,06,40,13.50
2016,04,20,06,41,13.40
2016,04,20,06,42,13.40
2016,04,20,06,43,13.40
2016,04,20,06,44,13.40
2016,04,20,06,45,13.40
2016,04,20,06,46,13.30
2016,04,20,06,47,13.40
2016,04,20,06,48,13.40
2016,04,20,06,49,13.40
2016,04,20,06,50,13.40
2016,04,20,06,51,13.40
2016,04,20,06,52,13.50
2016,04,20,06,53,13.50
2016,04,20,06,54,13.60
2016,04,20,06,55,13.60
2016,04,20,06,56,13.70
2016,04,20,06,57,13.80
2016,04,20,06,58,13.90
2016,04,20,06,59,13.90
2016,04,20,07,00,14.00
2016,04,20,07,01,14.00
2016,04,20,07,02,14.00
2016,04,20,07,03,14.10
2016,04,20,07,04,14.10
2016,04,20,07,05,14.10
2016,04,20,07,06,14.20
2016,04,20,07,07,14.20
2016,04,20,07,08,14.20
2016,04,20,07,09,14.20
2016,04,20,07,10,14.20
2016,04,20,07,11,14.20
2016,04,20,07,12,14.20
2016,04,20,07,13,14.30
2016,04,20,07,14,14.30
2016,04,20,07,15,14.30
2016,04,20,07,16,14.30
2016,04,20,07,17,14.40
2016,04,20,07,18,14.40
2016,04,20,07,19,14.40
2016,04,20,07,20,14.50
2016,04,20,07,21,14.50
2016,04,20,07,22,14.50
2016,04,20,07,23,14.60
2016,04,20,07,24,14.60
2016,04,20,07,25,14.70
2016,04,20,07,26,14.70
2016,04,20,07,27,14.80
2016,04,20,07,28,14.80
2016,04,20,07,29,14.80
2016,04,20,07,30,14.80
2016,04,20,07,31,14.80
2016,04,20,07,32,14.80
2016,04,20,07,33,14.80
2016,04,20,07,34,14.80
2016,04,20,07,35,14.80
2016,04,20,07,36,14.80
2016,04,20,07,37,14.80
2016,04,20,07,38,14.90
2016,04,20,07,39,14.90
2016,04,20,07,40,14.90
2016,04,20,07,41,14.90
2016,04,20,07,42,15.00
2016,04,20,07,43,15.00
2016,04,20,07,44,15.10
2016,04,20,07,45,15.10
2016,04,20,07,46,15.10
2016,04,20,07,47,15.20
2016,04,20,07,48,15.20
2016,04,20,07,49,15.30
2016,04,20,07,50,15.30
2016,04,20,07,51,15.30
2016,04,20,07,52,15.40
2016,04,20,07,53,15.40
2016,04,20,07,54,15.50
2016,04,20,07,55,15.50
2016,04,20,07,56,15.60
2016,04,20,07,57,15.60
2016,04,20,07,58,15.70
2016,04,20,07,59,15.70
2016,04,20,08,00,15.70
2016,04,20,08,01,15.70
2016,04,20,08,02,15.70
2016,04,20,08,03,15.70
2016,04,20,08,04,15.70
2016,04,20,08,05,15.70
2016,04,20,08,06,15.70
2016,04,20,08,07,15.70
2016,04,20,08,08,15.60
2016,04,20,08,09,15.60
2016,04,20,08,10,15.60
2016,04,20,08,11,15.60
2016,04,20,08,12,15.60
2016,04,20,08,13,15.50
2016,04,20,08,14,15.50
2016,04,20,08,15,15.50
2016,04,20,08,16,15.40
2016,04,20,08,17,15.40
2016,04,20,08,18,15.40
2016,04,20,08,19,15.40
2016,04,20,08,20,15.40
2016,04,20,08,21,15.40
2016,04,20,08,22,15.40
2016,04,20,08,23,15.40
2016,04,20,08,24,15.50
2016,04,20,08,25,15.50
2016,04,20,08,26,15.50
2016,04,20,08,27,15.50
2016,04,20,08,28,15.50
2016,04,20,08,29,15.60
2016,04,20,08,30,15.60
2016,04,20,08,31,15.60
2016,04,20,08,32,15.70
2016,04,20,08,33,15.70
2016,04,20,08,34,15.80
2016,04,20,08,35,15.80
2016,04,20,08,36,15.80
2016,04,20,08,37,15.80
2016,04,20,08,38,15.80
2016,04,20,08,39,15.90
2016,04,20,08,40,15.90
2016,04,20,08,41,15.90
2016,04,20,08,42,15.90
2016,04,20,08,43,15.90
2016,04,20,08,44,15.90
2016,04,20,08,45,15.90
2016,04,20,08,46,15.90
2016,04,20,08,47,15.90
2016,04,20,08,48,15.90
2016,04,20,08,49,15.90
2016,04,20,08,50,16.00
2016,04,20,08,51,16.10
2016,04,20,08,52,16.10
2016,04,20,08,53,16.10
2016,04,20,08,54,16.10
2016,04,20,08,55,16.20
2016,04,20,08,56,16.30
2016,04,20,08,57,16.30
2016,04,20,08,58,16.40
2016,04,20,08,59,16.40
2016,04,20,09,00,16.50
2016,04,20,09,01,16.60
2016,04,20,09,02,16.70
2016,04,20,09,03,16.70
2016,04,20,09,04,16.70
2016,04,20,09,05,16.70
2016,04,20,09,06,16.70
2016,04,20,09,07,16.70
2016,04,20,09,08,16.70
2016,04,20,09,09,16.70
2016,04,20,09,10,16.70
2016,04,20,09,11,16.70
2016,04,20,09,12,16.70
2016,04,20,09,13,16.70
2016,04,20,09,14,16.80
2016,04,20,09,15,16.90
2016,04,20,09,16,16.90
2016,04,20,09,17,17.00
2016,04,20,09,18,17.00
2016,04,20,09,19,17.00
2016,04,20,09,20,17.00
2016,04,20,09,21,16.90
2016,04,20,09,22,16.90
2016,04,20,09,23,16.90
2016,04,20,09,24,16.80
2016,04,20,09,25,16.80
2016,04,20,09,26,16.80
2016,04,20,09,27,16.80
2016,04,20,09,28,16.90
2016,04,20,09,29,16.90
2016,04,20,09,30,17.00
2016,04,20,09,31,17.00
2016,04,20,09,32,17.00
2016,04,20,09,33,17.10
2016,04,20,09,34,17.10
2016,04,20,09,35,17.20
2016,04,20,09,36,17.20
2016,04,20,09,37,17.20
2016,04,20,09,38,17.20
2016,04,20,09,39,17.20
2016,04,20,09,40,17.20
2016,04,20,09,41,17.20
2016,04,20,09,42,17.20
2016,04,20,09,43,17.30
2016,04,20,09,44,17.30
2016,04,20,09,45,17.30
2016,04,20,09,46,17.30
2016,04,20,09,47,17.40
2016,04,20,09,48,17.50
2016,04,20,09,49,17.60
2016,04,20,09,50,17.70
2016,04,20,09,51,17.70
2016,04,20,09,52,17.70
2016,04,20,09,53,17.70
2016,04,20,09,54,17.70
2016,04,20,09,55,17.70
2016,04,20,09,56,17.70
2016,04,20,09,57,17.70
2016,04,20,09,58,17.80
2016,04,20,09,59,17.80
2016,04,20,10,00,17.80
2016,04,20,10,01,17.80
2016,04,20,10,02,17.80
2016,04,20,10,03,17.80
2016,04,20,10,04,17.90
2016,04,20,10,05,17.90
2016,04,20,10,06,17.90
2016,04,20,10,07,17.90
2016,04,20,10,08,17.90
2016,04,20,10,09,18.00
2016,04,20,10,10,18.10
2016,04,20,10,11,17.90
2016,04,20,10,12,17.90
2016,04,20,10,13,17.90
2016,04,20,10,14,17.90
2016,04,20,10,15,17.90
2016,04,20,10,16,17.90
2016,04,20,10,17,17.90
2016,04,20,10,18,17.90
2016,04,20,10,19,18.00
2016,04,20,10,20,18.10
2016,04,20,10,21,18.10
2016,04,20,10,22,18.20
2016,04,20,10,23,18.20
2016,04,20,10,24,18.20
2016,04,20,10,25,18.30
2016,04,20,10,26,18.30
2016,04,20,10,27,18.30
2016,04,20,10,28,18.30
2016,04,20,10,29,18.30
2016,04,20,10,30,18.30
2016,04,20,10,31,18.30
2016,04,20,10,32,18.30
2016,04,20,10,33,18.40
2016,04,20,10,34,18.40
2016,04,20,10,35,18.50
2016,04,20,10,36,18.60
2016,04,20,10,37,18.60
2016,04,20,10,38,18.60
2016,04,20,10,39,18.60
2016,04,20,10,40,18.50
2016,04,20,10,41,18.50
2016,04,20,10,42,18.50
2016,04,20,10,43,18.50
2016,04,20,10,44,18.50
2016,04,20,10,45,18.50
2016,04,20,10,46,18.50
2016,04,20,10,47,18.60
2016,04,20,10,48,18.70
2016,04,20,10,49,18.70
2016,04,20,10,50,18.80
2016,04,20,10,51,18.90
2016,04,20,10,52,19.00
2016,04,20,10,53,19.10
2016,04,20,10,54,19.10
2016,04,20,10,55,19.10
2016,04,20,10,56,19.10
2016,04,20,10,57,19.10
2016,04,20,10,58,19.10
2016,04,20,10,59,19.00
2016,04,20,11,00,18.90
2016,04,20,11,01,18.90
2016,04,20,11,02,18.80
2016,04,20,11,03,18.80
2016,04,20,11,04,18.80
2016,04,20,11,05,18.80
2016,04,20,11,06,18.90
2016,04,20,11,07,18.90
2016,04,20,11,08,18.90
2016,04,20,11,09,18.90
2016,04,20,11,10,18.90
2016,04,20,11,11,18.90
2016,04,20,11,12,18.90
2016,04,20,11,13,18.90
2016,04,20,11,14,18.90
2016,04,20,11,15,18.90
2016,04,20,11,16,18.90
2016,04,20,11,17,19.00
2016,04,20,11,18,19.10
2016,04,20,11,19,19.10
2016,04,20,11,20,19.10
2016,04,20,11,21,19.20
2016,04,20,11,22,19.40
2016,04,20,11,23,19.40
2016,04,20,11,24,19.40
2016,04,20,11,25,19.40
2016,04,20,11,26,19.40
2016,04,20,11,27,19.40
2016,04,20,11,28,19.30
2016,04,20,11,29,19.30
2016,04,20,11,30,19.30
2016,04,20,11,31,19.30
2016,04,20,11,32,19.20
2016,04,20,11,33,19.10
2016,04,20,11,34,19.10
2016,04,20,11,35,19.10
2016,04,20,11,36,19.10
2016,04,20,11,37,19.10
2016,04,20,11,38,19.10
2016,04,20,11,39,19.10
2016,04,20,11,40,19.10
2016,04,20,11,41,19.10
2016,04,20,11,42,19.10
2016,04,20,11,43,19.10
2016,04,20,11,44,19.10
2016,04,20,11,45,19.10
2016,04,20,11,46,19.20
2016,04,20,11,47,19.20
2016,04,20,11,48,19.30
2016,04,20,11,49,19.40
2016,04,20,11,50,19.50
2016,04,20,11,51,19.50
2016,04,20,11,52,19.60
2016,04,20,11,53,19.70
2016,04,20,11,54,19.70
2016,04,20,11,55,19.70
2016,04,20,11,56,19.80
2016,04,20,11,57,19.80
2016,04,20,11,58,19.80
2016,04,20,11,59,19.80
2016,04,20,12,00,19.80
2016,04,20,12,01,19.80
2016,04,20,12,02,19.80
2016,04,20,12,03,19.80
2016,04,20,12,04,19.90
2016,04,20,12,05,19.90
2016,04,20,12,06,19.90
2016,04,20,12,07,20.00
2016,04,20,12,08,20.10
2016,04,20,12,09,20.10
2016,04,20,12,10,20.20
2016,04,20,12,11,20.20
2016,04,20,12,12,20.30
2016,04,20,12,13,20.40
2016,04,20,12,14,20.50
2016,04,20,12,15,20.60
2016,04,20,12,16,20.60
2016,04,20,12,17,20.60
2016,04,20,12,18,20.50
2016,04,20,12,19,20.50
2016,04,20,12,20,20.40
2016,04,20,12,21,20.40
2016,04,20,12,22,20.40
2016,04,20,12,23,20.50
2016,04,20,12,24,20.50
2016,04,20,12,25,20.40
2016,04,20,12,26,20.30
2016,04,20,12,27,20.20
2016,04,20,12,28,20.20
2016,04,20,12,29,20.10
2016,04,20,12,30,20.10
2016,04,20,12,31,20.10
2016,04,20,12,32,20.20
2016,04,20,12,33,20.20
2016,04,20,12,34,20.30
2016,04,20,12,35,20.40
2016,04,20,12,36,20.50
2016,04,20,12,37,20.60
2016,04,20,12,38,20.70
2016,04,20,12,39,20.60
2016,04,20,12,40,20.60
2016,04,20,12,41,20.50
2016,04,20,12,42,20.50
2016,04,20,12,43,20.40
2016,04,20,12,44,20.30
2016,04,20,12,45,20.30
2016,04,20,12,46,20.30
2016,04,20,12,47,20.40
2016,04,20,12,48,20.50
2016,04,20,12,49,20.50
2016,04,20,12,50,20.50
2016,04,20,12,51,20.60
2016,04,20,12,52,20.70
2016,04,20,12,53,20.80
2016,04,20,12,54,20.90
2016,04,20,12,55,21.00
2016,04,20,12,56,21.10
2016,04,20,12,57,21.30
2016,04,20,12,58,21.30
2016,04,20,12,59,21.30
2016,04,20,13,00,21.30
2016,04,20,13,01,21.30
2016,04,20,13,02,21.20
2016,04,20,13,03,21.20
2016,04,20,13,04,21.20
2016,04,20,13,05,21.30
2016,04,20,13,06,21.40
2016,04,20,13,07,21.50
2016,04,20,13,08,21.60
2016,04,20,13,09,21.60
2016,04,20,13,10,21.80
2016,04,20,13,11,21.80
2016,04,20,13,12,21.80
2016,04,20,13,13,21.80
2016,04,20,13,14,21.70
2016,04,20,13,15,21.70
2016,04,20,13,16,21.80
2016,04,20,13,17,21.80
2016,04,20,13,18,21.70
2016,04,20,13,19,21.70
2016,04,20,13,20,21.70
2016,04,20,13,21,21.70
2016,04,20,13,22,21.80
2016,04,20,13,23,21.80
2016,04,20,13,24,21.70
2016,04,20,13,25,21.70
2016,04,20,13,26,21.60
2016,04,20,13,27,21.60
2016,04,20,13,28,21.60
2016,04,20,13,29,21.70
2016,04,20,13,30,21.70
2016,04,20,13,31,21.60
2016,04,20,13,32,21.60
2016,04,20,13,33,21.60
2016,04,20,13,34,21.60
2016,04,20,13,35,21.60
2016,04,20,13,36,21.60
2016,04,20,13,37,21.60
2016,04,20,13,38,21.60
2016,04,20,13,39,21.60
2016,04,20,13,40,21.70
2016,04,20,13,41,21.70
2016,04,20,13,42,21.80
2016,04,20,13,43,22.00
2016,04,20,13,44,22.00
2016,04,20,13,45,22.10
2016,04,20,13,46,22.10
2016,04,20,13,47,22.10
2016,04,20,13,48,22.20
2016,04,20,13,49,22.20
2016,04,20,13,50,22.30
2016,04,20,13,51,22.30
2016,04,20,13,52,22.30
2016,04,20,13,53,22.40
2016,04,20,13,54,22.40
2016,04,20,13,55,22.30
2016,04,20,13,56,22.20
2016,04,20,13,57,22.10
2016,04,20,13,58,22.00
2016,04,20,13,59,22.00
2016,04,20,14,00,22.00
2016,04,20,14,01,21.90
2016,04,20,14,02,21.90
2016,04,20,14,03,22.00
2016,04,20,14,04,22.00
2016,04,20,14,05,22.10
2016,04,20,14,06,22.20
2016,04,20,14,07,22.30
2016,04,20,14,08,22.40
2016,04,20,14,09,22.40
2016,04,20,14,10,22.50
2016,04,20,14,11,22.60
2016,04,20,14,12,22.60
2016,04,20,14,13,22.70
2016,04,20,14,14,22.70
2016,04,20,14,15,22.80
2016,04,20,14,16,22.90
2016,04,20,14,17,22.90
2016,04,20,14,18,22.90
2016,04,20,14,19,22.90
2016,04,20,14,20,22.90
2016,04,20,14,21,22.90
2016,04,20,14,22,22.90
2016,04,20,14,23,22.90
2016,04,20,14,24,23.00
2016,04,20,14,25,23.10
2016,04,20,14,26,23.30
2016,04,20,14,27,23.30
2016,04,20,14,28,23.30
2016,04,20,14,29,23.40
2016,04,20,14,30,23.40
2016,04,20,14,31,23.40
2016,04,20,14,32,23.30
2016,04,20,14,33,23.20
2016,04,20,14,34,23.10
2016,04,20,14,35,22.90
2016,04,20,14,36,22.60
2016,04,20,14,37,22.50
2016,04,20,14,38,22.50
2016,04,20,14,39,22.40
2016,04,20,14,40,22.40
2016,04,20,14,41,22.30
2016,04,20,14,42,22.30
2016,04,20,14,43,22.30
2016,04,20,14,44,22.30
2016,04,20,14,45,22.30
2016,04,20,14,46,22.30
2016,04,20,14,47,22.30
2016,04,20,14,48,22.30
2016,04,20,14,49,22.40
2016,04,20,14,50,22.50
2016,04,20,14,51,22.60
2016,04,20,14,52,22.70
2016,04,20,14,53,22.80
2016,04,20,14,54,22.80
2016,04,20,14,55,22.70
2016,04,20,14,56,22.60
2016,04,20,14,57,22.60
2016,04,20,14,58,22.60
2016,04,20,14,59,22.70
2016,04,20,15,00,22.80
2016,04,20,15,01,22.80
2016,04,20,15,02,22.90
2016,04,20,15,03,22.90
2016,04,20,15,04,22.90
2016,04,20,15,05,22.90
2016,04,20,15,06,22.90
2016,04,20,15,07,22.90
2016,04,20,15,08,22.90
2016,04,20,15,09,22.90
2016,04,20,15,10,23.00
2016,04,20,15,11,23.10
2016,04,20,15,12,23.20
2016,04,20,15,13,23.30
2016,04,20,15,14,23.40
2016,04,20,15,15,23.50
2016,04,20,15,16,23.60
2016,04,20,15,17,23.60
2016,04,20,15,18,23.40
2016,04,20,15,19,23.30
2016,04,20,15,20,23.20
2016,04,20,15,21,23.20
2016,04,20,15,22,23.20
2016,04,20,15,23,23.20
2016,04,20,15,24,23.30
2016,04,20,15,25,23.30
2016,04,20,15,26,23.40
2016,04,20,15,27,23.50
2016,04,20,15,28,23.60
2016,04,20,15,29,23.70
2016,04,20,15,30,23.60
2016,04,20,15,31,23.50
2016,04,20,15,32,23.40
2016,04,20,15,33,23.30
2016,04,20,15,34,23.30
2016,04,20,15,35,23.30
2016,04,20,15,36,23.30
2016,04,20,15,37,23.30
2016,04,20,15,38,23.30
2016,04,20,15,39,23.30
2016,04,20,15,40,23.20
2016,04,20,15,41,23.10
2016,04,20,15,42,23.10
2016,04,20,15,43,23.10
2016,04,20,15,44,23.20
2016,04,20,15,45,23.20
2016,04,20,15,46,23.30
2016,04,20,15,47,23.50
2016,04,20,15,48,23.70
2016,04,20,15,49,23.80
2016,04,20,15,50,23.90
2016,04,20,15,51,24.00
2016,04,20,15,52,24.10
2016,04,20,15,53,24.00
2016,04,20,15,54,23.90
2016,04,20,15,55,23.80
2016,04,20,15,56,23.80
2016,04,20,15,57,23.70
2016,04,20,15,58,23.70
2016,04,20,15,59,23.70
2016,04,20,16,00,23.70
2016,04,20,16,01,23.60
2016,04,20,16,02,23.70
2016,04,20,16,03,23.70
2016,04,20,16,04,23.70
2016,04,20,16,05,23.70
2016,04,20,16,06,23.70
2016,04,20,16,07,23.70
2016,04,20,16,08,23.70
2016,04,20,16,09,23.70
2016,04,20,16,10,23.70
2016,04,20,16,11,23.80
2016,04,20,16,12,23.80
2016,04,20,16,13,23.80
2016,04,20,16,14,23.90
2016,04,20,16,15,23.90
2016,04,20,16,16,23.90
2016,04,20,16,17,24.00
2016,04,20,16,18,24.10
2016,04,20,16,19,24.10
2016,04,20,16,20,24.20
2016,04,20,16,21,24.30
2016,04,20,16,22,24.40
2016,04,20,16,23,24.40
2016,04,20,16,24,24.40
2016,04,20,16,25,24.40
2016,04,20,16,26,24.30
2016,04,20,16,27,24.20
2016,04,20,16,28,24.20
2016,04,20,16,29,24.30
2016,04,20,16,30,24.30
2016,04,20,16,31,24.30
2016,04,20,16,32,24.40
2016,04,20,16,33,24.40
2016,04,20,16,34,24.50
2016,04,20,16,35,24.50
2016,04,20,16,36,24.50
2016,04,20,16,37,24.50
2016,04,20,16,38,24.50
2016,04,20,16,39,24.60
2016,04,20,16,40,24.70
2016,04,20,16,41,24.80
2016,04,20,16,42,24.80
2016,04,20,16,43,24.90
2016,04,20,16,44,25.00
2016,04,20,16,45,25.00
2016,04,20,16,46,25.00
2016,04,20,16,47,25.00
2016,04,20,16,48,25.00
2016,04,20,16,49,25.00
2016,04,20,16,50,25.10
2016,04,20,16,51,25.10
2016,04,20,16,52,25.20
2016,04,20,16,53,25.30
2016,04,20,16,54,25.40
2016,04,20,16,55,25.50
2016,04,20,16,56,25.60
2016,04,20,16,57,25.60
2016,04,20,16,58,25.70
2016,04,20,16,59,25.70
2016,04,20,17,00,25.90
2016,04,20,17,01,26.00
2016,04,20,17,02,26.20
2016,04,20,17,03,26.40
2016,04,20,17,04,26.50
2016,04,20,17,05,26.60
2016,04,20,17,06,26.60
2016,04,20,17,07,26.60
2016,04,20,17,08,26.60
2016,04,20,17,09,26.50
2016,04,20,17,10,26.40
2016,04,20,17,11,26.20
2016,04,20,17,12,25.80
2016,04,20,17,13,25.40
2016,04,20,17,14,25.00
2016,04,20,17,15,24.70
2016,04,20,17,16,24.50
2016,04,20,17,17,24.10
2016,04,20,17,18,23.90
2016,04,20,17,19,23.70